This is the latest recevied weather packets stored in our database for station/object JF7BTK-10. If no packets are shown the sender has not sent any weather packets the latest 10 day(s).
| Time | Temp. | Humidity | Pressure | Rain* | Wind** | Luminosity | Snow |
|---|---|---|---|---|---|---|---|
| 1777525133 | 16.67° C | 40% | 1014.1 hPa | 0 mm | - | - | - |
| 1777524232 | 16.67° C | 38% | 1013.9 hPa | 0 mm | - | - | - |
| 1777523332 | 17.22° C | 36% | 1014 hPa | 0 mm | - | - | - |
| 1777522652 | 17.22° C | 34% | 1014 hPa | 0 mm | - | - | - |
| 1777522431 | 17.22° C | 34% | 1014 hPa | 0 mm | - | - | - |
| 1777521532 | 17.22° C | 32% | 1014 hPa | 0 mm | - | - | - |
| 1777520631 | 17.22° C | 24% | 1013.9 hPa | 0 mm | - | - | - |
| 1777519731 | 17.78° C | 21% | 1014 hPa | 0 mm | - | - | - |
| 1777519652 | 17.78° C | 21% | 1013.9 hPa | 0 mm | - | - | - |
| 1777519352 | 17.78° C | 21% | 1013.9 hPa | 0 mm | - | - | - |
| 1777519053 | 17.78° C | 21% | 1014.1 hPa | 0 mm | - | - | - |
| 1777518831 | 17.78° C | 23% | 1014 hPa | 0 mm | - | - | - |
| 1777518752 | 17.78° C | 23% | 1013.9 hPa | 0 mm | - | - | - |
| 1777518153 | 17.78° C | 25% | 1014 hPa | 0 mm | - | - | - |
| 1777517931 | 17.78° C | 26% | 1014 hPa | 0 mm | - | - | - |
| 1777517253 | 17.78° C | 30% | 1014.2 hPa | 0 mm | - | - | - |
| 1777517031 | 17.22° C | 32% | 1014.1 hPa | 0 mm | - | - | - |
| 1777516652 | 17.22° C | 30% | 1014.1 hPa | 0 mm | - | - | - |
| 1777516131 | 17.78° C | 30% | 1014.2 hPa | 0 mm | - | - | - |
| 1777516052 | 17.78° C | 30% | 1014.2 hPa | 0 mm | - | - | - |
| 1777515231 | 17.78° C | 26% | 1014.4 hPa | 0 mm | - | - | - |
| 1777514553 | 17.78° C | 30% | 1014.3 hPa | 0 mm | - | - | - |
| 1777514332 | 17.22° C | 30% | 1014.3 hPa | 0 mm | - | - | - |
| 1777513433 | 17.78° C | 30% | 1014.8 hPa | 0 mm | - | - | - |
| 1777512532 | 17.22° C | 34% | 1014.3 hPa | 0 mm | - | - | - |
* Rain latest hour (hover to see other rain measurements)
** Current wind speed in m/s (hover to see current wind gust speed)